FW8285 Weather Reports


Display with metric or nautical units.
time (UTC)temp
F
wind
direction
speed
MPH
gust
MPH
rain 1hr
in
rain 24hr
in
rain mn
in
humidity
%
barometer
mb
20260831201559 72 0 0.0 0.0 0.00 0.00 0.00 81 1018.3
20260831200052 73 0 0.0 1.0 0.00 0.00 0.00 79 1018.3
20260831194634 74 186 0.0 4.0 0.00 0.00 0.00 78 1018.3
20260831193044 75 0 0.0 2.0 0.00 0.00 0.00 77 1018.2
20260831191551 75 130 0.0 3.0 0.00 0.00 0.00 77 1018.6
20260831190059 76 153 0.0 2.0 0.00 0.00 0.00 75 1018.7
20260831184556 74 0 0.0 3.0 0.00 0.00 0.00 79 1019.0
20260831183044 74 138 0.0 3.0 0.00 0.00 0.00 79 1019.2
20260831181549 75 0 1.0 5.0 0.00 0.00 0.00 75 1019.3
20260831180046 75 0 1.0 6.0 0.00 0.00 0.00 74 1019.4
20260831174555 75 157 1.0 5.0 0.00 0.00 0.00 76 1019.4
20260831173048 74 144 0.0 7.0 0.00 0.00 0.00 80 1019.6
20260831171547 73 134 1.0 6.0 0.00 0.00 0.00 79 1019.6
20260831170050 73 142 1.0 3.0 0.00 0.00 0.00 80 1019.6
20260831164548 72 190 1.0 4.0 0.00 0.00 0.00 79 1019.7
20260831163047 72 209 1.0 4.0 0.00 0.00 0.00 79 1020.2
20260831161556 72 134 2.0 5.0 0.00 0.00 0.00 79 1020.2
20260831160050 72 0 0.0 4.0 0.00 0.00 0.00 79 1020.3
20260831154615 73 153 0.0 4.0 0.00 0.00 0.00 77 1020.3
20260831153046 72 184 2.0 6.0 0.00 0.00 0.00 77 1020.5
20260831151555 71 42 0.0 4.0 0.00 0.00 0.00 82 1020.5
20260831150050 69 141 0.0 3.0 0.00 0.00 0.00 86 1020.6
20260831144612 68 0 0.0 3.0 0.00 0.00 0.00 87 1020.5
20260831143052 67 213 0.0 3.0 0.00 0.00 0.00 91 1020.6
20260831141545 66 0 0.0 2.0 0.00 0.00 0.00 95 1020.6
20260831140045 65 149 0.0 2.0 0.00 0.00 0.00 97 1020.6
20260831134548 64 0 0.0 2.0 0.00 0.00 0.00 97 1020.5
20260831133050 64 0 0.0 2.0 0.00 0.00 0.00 99 1020.6
20260831131544 63 37 0.0 2.0 0.00 0.00 0.00 99 1020.6
20260831130053 63 0 0.0 3.0 0.00 0.00 0.00 99 1020.6
20260831124555 62 0 1.0 3.0 0.00 0.00 0.00 99 1020.7
20260831123054 62 29 0.0 2.0 0.00 0.00 0.00 99 1020.8
20260831121545 62 0 0.0 1.0 0.00 0.00 0.00 99 1020.8
20260831120054 62 0 0.0 3.0 0.00 0.00 0.00 99 1020.6
20260831114555 62 0 1.0 2.0 0.00 0.00 0.00 99 1020.6
20260831113045 61 0 0.0 3.0 0.00 0.00 0.00 99 1020.4
20260831111556 61 0 0.0 0.0 0.00 0.00 0.00 99 1020.5
20260831110052 61 0 0.0 1.0 0.00 0.00 0.00 99 1020.2
20260831104548 61 0 0.0 2.0 0.00 0.00 0.00 99 1019.9
20260831103045 61 0 0.0 1.0 0.00 0.00 0.00 99 1019.8
20260831101552 61 0 0.0 0.0 0.00 0.00 0.00 99 1019.8
20260831100114 61 0 0.0 0.0 0.00 0.00 0.00 99 1019.7
20260831094547 61 0 0.0 0.0 0.00 0.00 0.00 99 1019.6
20260831093045 61 0 0.0 0.0 0.00 0.00 0.00 99 1019.3
20260831091553 61 0 0.0 0.0 0.00 0.00 0.00 98 1019.4
20260831090049 61 0 0.0 0.0 0.00 0.00 0.00 98 1019.1
20260831084619 61 0 0.0 1.0 0.00 0.00 0.00 98 1019.3
20260831083054 61 0 0.0 0.0 0.00 0.00 0.00 98 1019.5
20260831081552 61 0 0.0 0.0 0.00 0.00 0.00 98 1019.4
20260831074558 61 0 0.0 0.0 0.00 0.00 0.00 98 1019.3
20260831073053 61 0 0.0 0.0 0.00 0.00 0.00 98 1019.1
20260831071600 62 0 0.0 0.0 0.00 0.00 0.00 98 1019.1
20260831070050 62 0 0.0 0.0 0.00 0.00 0.00 98 1019.2
20260831064557 62 0 0.0 3.0 0.00 0.00 0.00 98 1019.0
20260831063050 62 271 0.0 5.0 0.00 0.00 0.00 98 1019.1
20260831061549 62 271 1.0 4.0 0.00 0.00 0.00 98 1019.1
20260831060059 62 0 0.0 3.0 0.00 0.00 0.00 98 1019.0
20260831054546 61 0 0.0 2.0 0.00 0.00 0.00 97 1018.8
20260831053104 62 0 0.0 4.0 0.00 0.00 0.00 98 1019.0
20260831051554 61 0 0.0 0.0 0.00 0.00 0.00 97 1019.0
20260831050108 61 0 0.0 0.0 0.00 0.00 0.00 96 1018.9
20260831044551 62 0 0.0 2.0 0.00 0.00 0.00 97 1019.1
20260831043053 62 0 0.0 3.0 0.00 0.00 0.00 97 1019.0
20260831041600 62 0 0.0 4.0 0.00 0.00 0.00 96 1019.0
20260831040048 63 0 0.0 4.0 0.00 0.00 0.00 97 1019.0
20260831034548 63 0 2.0 7.0 0.00 0.00 0.00 96 1019.1
20260831033106 63 250 0.0 5.0 0.00 0.00 0.00 96 1019.2
20260831031554 63 295 0.0 7.0 0.00 0.00 0.00 96 1019.3
20260831030051 63 278 0.0 4.0 0.00 0.00 0.00 96 1019.4
20260831024548 64 0 1.0 5.0 0.00 0.00 0.00 96 1019.3
20260831023044 63 276 1.0 6.0 0.00 0.00 0.00 95 1019.3
20260831021549 63 0 0.0 4.0 0.00 0.00 0.00 95 1019.1
20260831020050 64 271 2.0 6.0 0.00 0.00 0.00 94 1019.0
20260831014557 64 281 1.0 7.0 0.00 0.00 0.00 93 1019.1
20260831013056 64 281 1.0 6.0 0.00 0.00 0.00 93 1019.1
20260831011553 64 285 1.0 6.0 0.00 0.00 0.00 93 1018.9
20260831010106 64 0 0.0 6.0 0.00 0.00 0.00 93 1018.8
20260831004548 64 281 1.0 4.0 0.00 0.00 0.00 94 1018.8
20260831003103 64 0 0.0 3.0 0.00 0.00 0.00 94 1018.6
20260831001550 64 0 0.0 3.0 0.00 0.00 0.00 94 1018.5
20260831000052 64 0 1.0 4.0 0.00 0.00 0.00 94 1018.1
20260830234553 64 280 1.0 6.0 0.00 0.00 0.00 94 1017.9
20260830233050 64 0 0.0 5.0 0.00 0.00 0.00 93 1017.8
20260830231600 65 344 0.0 4.0 0.00 0.00 0.00 91 1017.5
20260830230050 65 0 0.0 4.0 0.00 0.00 0.00 90 1017.4
20260830224606 65 298 2.0 8.0 0.00 0.00 0.00 89 1017.5
20260830223148 66 281 1.0 6.0 0.00 0.00 0.00 88 1017.7
20260830221548 67 279 2.0 6.0 0.00 0.00 0.00 86 1017.9
20260830220055 67 0 1.0 8.0 0.00 0.00 0.00 85 1017.9
20260830214549 68 288 2.0 8.0 0.00 0.00 0.00 83 1017.8
20260830213043 69 288 3.0 9.0 0.00 0.00 0.00 82 1017.7
20260830211548 70 286 2.0 8.0 0.00 0.00 0.00 79 1017.4
20260830210100 71 277 1.0 6.0 0.00 0.00 0.00 77 1017.4
20260830204550 71 0 0.0 8.0 0.00 0.00 0.00 76 1017.3
20260830203053 72 0 0.0 4.0 0.00 0.00 0.00 77 1017.3